User: anonymous   Login
Location: Borovka
(49.7741°N, 14.5280°E)
Time: 23:12:50
(UTC+00:00)
Language:

NOAA 15 - Orbit

View from above orbital plane
View from above orbital plane
View from above satellite
View from above satellite

Ground track
Ground track

The orbit is defined by the following mean orbital elements,

1 25338U          26071.64337619 +.00000000 +00000-0 +93084-4 0 00007
2 25338  98.5160  94.8475 0009054 270.2692  89.7451 14.27113938    08
Epoch (UTC): 12 March 2026 15:26:27
Eccentricity: 0.0009054
inclination: 98.5160°
perigee height: 795 km
apogee height: 808 km
right ascension of ascending node: 94.8475°
argument of perigee: 270.2692°
revolutions per day: 14.27113938
mean anomaly at epoch: 89.7451°

The dashed part of the orbit path shows where the satellite is in the earth's shadow,  

DLR